Hourly Data Report for September 18, 2017

All times are specified in Local Standard Time (LST). Add 1 hour to adjust for Daylight Saving Time where and when it is observed.

EDMUNDSTON
NEW BRUNSWICK

47°25'00.000" N
68°19'28.040" W
154.20 m
8101303
71590
ERM

Download Data

Hourly Data (September 2017)
Hourly Data Report for September 18, 2017
Temp Definition
°C
Dew Point Temp Definition
°C
Rel Hum Definition
%
Wind Dir Definition
10's deg

Wind Spd Definition
km/h
Visibility Definition
km
Stn Press Definition
kPa
Hmdx Definition


Wind Chill Definition


Weather Definition


TIME
00:00 13.3 11.6 89 13 3   100.27     LegendNANA
01:00 12.5 10.8 90 12 5   100.27     LegendNANA
02:00 11.7 10.4 92   0   100.25     LegendNANA
03:00 11.7 10.5 92 0 1   100.26     LegendNANA
04:00 11.9 10.6 92   0   100.28     LegendNANA
05:00 12.0 10.7 91 15 2   100.29     LegendNANA
06:00 11.8 10.9 94   0   100.33     LegendNANA
07:00 12.0 11.2 95   0   100.35     LegendNANA
08:00 12.6 11.9 95 14 3   100.39     LegendNANA
09:00 13.5 12.6 95 0 1   100.43     LegendNANA
10:00 14.1 13.0 93 12 4   100.42     LegendNANA
11:00 15.2 13.7 91 13 6   100.41     LegendNANA
12:00 16.5 14.3 87 15 7   100.41     LegendNANA
13:00 17.8 14.9 84 15 9   100.37     LegendNANA
14:00 17.8 15.4 86 15 6   100.35     LegendNANA
15:00 17.8 15.7 88 16 7   100.34     LegendNANA
16:00 18.4 16.2 87 13 4   100.31     LegendNANA
17:00 18.1 16.2 89 13 5   100.32     LegendNANA
18:00 17.6 16.3 92 14 6   100.34     LegendNANA
19:00 17.4 16.3 93 12 4   100.36     LegendNANA
20:00 17.2 16.2 94 13 5   100.38     LegendNANA
21:00 17.3 16.3 94 13 3   100.36     LegendNANA
22:00 17.3 16.1 93 14 6   100.38     LegendNANA
23:00 17.1 15.7 91 14 7   100.35     LegendNANA

Notes on Data Quality.

Legend

  • E = Estimated
  • M = Missing
  • NA = Not Available
  • ‡ = Partner data that is not subject to review by the National Climate Archives
Date modified: